{"data":{"norad_id":61217,"intl_designator":"2024-171T","name":"STARLINK-32342","alt_names":[],"object_type":"PAYLOAD","status":"ACTIVE","operator":null,"country":"US","launch_date":"2024-09-20","launch_site_code":"AFWTR","launch_vehicle":null,"mission":null,"orbit_class":"UNKNOWN","rcs_meters":null,"size_class":null,"mass_kg":null,"dimensions":null,"purposes":["comms"],"wikipedia_slug":null,"has_3d_model":false,"image_url":null,"decayed_at":null,"tle_current":{"epoch":"2026-05-24T16:23:42.285984Z","epoch_age_seconds":106017,"freshness":"FRESH","line1":"1 61217U 24171T   26144.68312831 -.00000146  00000+0  72193-5 0  9999","line2":"2 61217  53.1616 329.4445 0002576  80.7830 279.3462 15.30193884 94916","mean_motion":15.30193884,"eccentricity":0.0002576,"inclination_deg":53.1616,"raan_deg":329.4445,"arg_perigee_deg":80.783,"mean_anomaly_deg":279.3462,"bstar":7.2193e-6,"rev_number":9491,"period_min":94.105721834136,"perigee_km":473.46790255653,"apogee_km":476.99875895093,"semimajor_km":6853.3703307537,"source":"CELESTRAK","updated_at":"2026-05-25T13:38:19.362450Z"}}}